| time (UTC) | temp C | wind direction | speed KPH | gust KPH | rain 1hr cm | rain 24hr cm | rain mn cm | humidity % | barometer mb |
| 20260508033016 | 13 | 0.0 | 0.0 | 0.00 | 0.00 | 0.00 | 79 | 1017.0 | |
| 20260508032016 | 13 | 0.0 | 0.0 | 0.00 | 0.00 | 0.00 | 80 | 1017.0 | |
| 20260508031036 | 13 | 0.0 | 0.0 | 0.00 | 0.00 | 0.00 | 78 | 1017.1 | |
| 20260508030016 | 13 | 0.0 | 0.0 | 0.00 | 0.00 | 0.00 | 78 | 1017.1 | |
| 20260508025016 | 14 | 0.0 | 0.0 | 0.00 | 0.00 | 0.00 | 77 | 1017.1 | |
| 20260508024016 | 15 | 0.0 | 0.0 | 0.00 | 0.00 | 0.00 | 75 | 1017.1 | |
| 20260508023016 | 15 | 0.0 | 0.0 | 0.00 | 0.00 | 0.00 | 74 | 1017.2 | |
| 20260508022036 | 15 | 0.0 | 0.0 | 0.00 | 0.00 | 0.00 | 74 | 1017.3 | |
| 20260508021016 | 15 | 0.0 | 0.0 | 0.00 | 0.00 | 0.00 | 72 | 1017.2 | |
| 20260508020016 | 16 | 0.0 | 0.0 | 0.00 | 0.00 | 0.00 | 72 | 1017.2 | |
| 20260508015016 | 16 | 0.0 | 0.0 | 0.00 | 0.00 | 0.00 | 71 | 1017.2 | |
| 20260508014016 | 16 | 0.0 | 1.6 | 0.00 | 0.00 | 0.00 | 66 | 1017.3 | |
| 20260508013016 | 16 | 0.0 | 0.0 | 0.00 | 0.00 | 0.00 | 65 | 1017.4 | |
| 20260508012016 | 16 | 0.0 | 0.0 | 0.00 | 0.00 | 0.00 | 66 | 1017.5 | |
| 20260508011016 | 16 | 0.0 | 0.0 | 0.00 | 0.00 | 0.00 | 67 | 1017.7 | |
| 20260508010037 | 16 | 0.0 | 3.2 | 0.00 | 0.00 | 0.00 | 67 | 1017.7 | |
| 20260508005016 | 16 | 0.0 | 1.6 | 0.00 | 0.00 | 0.00 | 68 | 1017.9 | |
| 20260508004016 | 16 | 0.0 | 1.6 | 0.00 | 0.00 | 0.00 | 66 | 1017.9 | |
| 20260508003016 | 16 | 0.0 | 1.6 | 0.00 | 0.00 | 0.00 | 66 | 1017.9 | |
| 20260508002016 | 16 | 0.0 | 3.2 | 0.00 | 0.00 | 0.00 | 66 | 1018.0 | |
| 20260508001016 | 16 | 0.0 | 1.6 | 0.00 | 0.00 | 0.00 | 67 | 1018.0 | |
| 20260508000016 | 16 | 0.0 | 3.2 | 0.00 | 0.00 | 0.00 | 66 | 1018.1 | |
| 20260507235016 | 16 | 0.0 | 3.2 | 0.00 | 0.00 | 0.00 | 67 | 1018.1 | |
| 20260507234016 | 16 | 0.0 | 0.0 | 0.00 | 0.00 | 0.00 | 69 | 1018.2 | |
| 20260507233016 | 16 | 0.0 | 1.6 | 0.00 | 0.00 | 0.00 | 68 | 1018.1 | |
| 20260507232016 | 16 | 0.0 | 1.6 | 0.00 | 0.00 | 0.00 | 68 | 1018.2 | |
| 20260507231016 | 16 | 0.0 | 1.6 | 0.00 | 0.00 | 0.00 | 68 | 1018.4 | |
| 20260507230016 | 16 | 0.0 | 1.6 | 0.00 | 0.00 | 0.00 | 69 | 1018.5 | |
| 20260507225016 | 16 | 0.0 | 1.6 | 0.00 | 0.00 | 0.00 | 70 | 1018.5 | |
| 20260507224016 | 16 | 0.0 | 0.0 | 0.00 | 0.00 | 0.00 | 69 | 1018.6 | |
| 20260507223015 | 15 | 0.0 | 1.6 | 0.00 | 0.00 | 0.00 | 70 | 1018.7 | |
| 20260507222016 | 15 | 0.0 | 3.2 | 0.00 | 0.00 | 0.00 | 71 | 1018.7 | |
| 20260507221016 | 15 | 0.0 | 3.2 | 0.00 | 0.00 | 0.00 | 71 | 1018.8 | |
| 20260507220016 | 15 | 0.0 | 3.2 | 0.00 | 0.00 | 0.00 | 70 | 1018.9 | |
| 20260507215015 | 15 | 0.0 | 1.6 | 0.00 | 0.00 | 0.00 | 71 | 1019.1 | |
| 20260507214015 | 15 | 0.0 | 1.6 | 0.00 | 0.00 | 0.00 | 72 | 1019.2 | |
| 20260507213015 | 15 | 0.0 | 0.0 | 0.00 | 0.00 | 0.00 | 72 | 1019.3 | |
| 20260507212016 | 15 | 0.0 | 1.6 | 0.00 | 0.00 | 0.00 | 71 | 1019.4 | |
| 20260507211015 | 15 | 0.0 | 0.0 | 0.00 | 0.00 | 0.00 | 73 | 1019.5 | |
| 20260507210016 | 15 | 0.0 | 4.8 | 0.00 | 0.00 | 0.00 | 70 | 1019.6 | |
| 20260507205056 | 15 | 0.0 | 3.2 | 0.00 | 0.00 | 0.00 | 73 | 1019.6 | |
| 20260507204035 | 14 | 0.0 | 4.8 | 0.00 | 0.00 | 0.00 | 73 | 1019.8 | |
| 20260507203015 | 14 | 0.0 | 1.6 | 0.00 | 0.00 | 0.00 | 73 | 1019.9 | |
| 20260507202016 | 13 | 0.0 | 3.2 | 0.00 | 0.00 | 0.00 | 74 | 1020.1 | |
| 20260507201015 | 13 | 158 | 1.6 | 6.4 | 0.00 | 0.00 | 0.00 | 74 | 1020.1 |
| 20260507200015 | 13 | 0.0 | 1.6 | 0.00 | 0.00 | 0.00 | 74 | 1020.2 | |
| 20260507195015 | 13 | 0.0 | 1.6 | 0.00 | 0.00 | 0.00 | 74 | 1020.3 | |
| 20260507194015 | 13 | 0.0 | 0.0 | 0.00 | 0.00 | 0.00 | 75 | 1020.3 | |
| 20260507193015 | 13 | 0.0 | 1.6 | 0.00 | 0.00 | 0.00 | 75 | 1020.4 | |
| 20260507192015 | 13 | 0.0 | 1.6 | 0.00 | 0.00 | 0.00 | 75 | 1020.4 | |
| 20260507191016 | 12 | 0.0 | 3.2 | 0.00 | 0.00 | 0.00 | 77 | 1020.4 | |
| 20260507190016 | 12 | 0.0 | 3.2 | 0.00 | 0.00 | 0.00 | 77 | 1020.5 | |
| 20260507185015 | 12 | 0.0 | 3.2 | 0.00 | 0.00 | 0.00 | 77 | 1020.5 | |
| 20260507184018 | 12 | 0.0 | 1.6 | 0.00 | 0.00 | 0.00 | 77 | 1020.6 | |
| 20260507183017 | 12 | 0.0 | 0.0 | 0.00 | 0.00 | 0.00 | 77 | 1020.7 | |
| 20260507182018 | 12 | 0.0 | 1.6 | 0.00 | 0.00 | 0.00 | 77 | 1020.7 | |
| 20260507181017 | 12 | 0.0 | 1.6 | 0.00 | 0.00 | 0.00 | 76 | 1020.7 | |
| 20260507180017 | 12 | 0.0 | 0.0 | 0.00 | 0.00 | 0.00 | 77 | 1020.8 | |
| 20260507175038 | 12 | 0.0 | 0.0 | 0.00 | 0.00 | 0.00 | 78 | 1020.8 | |
| 20260507174015 | 12 | 0.0 | 3.2 | 0.00 | 0.00 | 0.00 | 78 | 1020.8 | |
| 20260507173018 | 12 | 0.0 | 1.6 | 0.00 | 0.00 | 0.00 | 78 | 1020.9 | |
| 20260507172018 | 12 | 0.0 | 0.0 | 0.00 | 0.00 | 0.00 | 79 | 1020.9 | |
| 20260507171017 | 12 | 0.0 | 1.6 | 0.00 | 0.00 | 0.00 | 79 | 1020.8 | |
| 20260507170017 | 12 | 0.0 | 3.2 | 0.00 | 0.00 | 0.00 | 80 | 1020.8 | |
| 20260507165037 | 11 | 0.0 | 6.4 | 0.00 | 0.00 | 0.00 | 80 | 1020.8 | |
| 20260507164017 | 11 | 0.0 | 1.6 | 0.00 | 0.00 | 0.00 | 80 | 1020.7 | |
| 20260507163017 | 11 | 0.0 | 4.8 | 0.00 | 0.00 | 0.00 | 80 | 1020.7 | |
| 20260507162017 | 11 | 0.0 | 3.2 | 0.00 | 0.00 | 0.00 | 81 | 1020.8 | |
| 20260507161017 | 11 | 0.0 | 3.2 | 0.00 | 0.00 | 0.00 | 82 | 1020.8 | |
| 20260507160038 | 11 | 0.0 | 6.4 | 0.00 | 0.00 | 0.00 | 82 | 1020.9 | |
| 20260507155017 | 11 | 23 | 1.6 | 9.7 | 0.00 | 0.00 | 0.00 | 82 | 1020.8 |
| 20260507154017 | 11 | 68 | 1.6 | 6.4 | 0.00 | 0.00 | 0.00 | 83 | 1020.9 |
| 20260507153017 | 11 | 0.0 | 3.2 | 0.00 | 0.00 | 0.00 | 84 | 1020.8 | |
| 20260507152017 | 11 | 0.0 | 4.8 | 0.00 | 0.00 | 0.00 | 85 | 1020.9 | |
| 20260507151017 | 10 | 0.0 | 6.4 | 0.00 | 0.00 | 0.00 | 86 | 1020.9 | |
| 20260507150018 | 10 | 0.0 | 1.6 | 0.00 | 0.00 | 0.00 | 87 | 1020.9 | |
| 20260507145017 | 10 | 0.0 | 1.6 | 0.00 | 0.00 | 0.00 | 88 | 1020.9 | |
| 20260507144017 | 10 | 0.0 | 1.6 | 0.00 | 0.00 | 0.00 | 89 | 1020.9 | |
| 20260507143017 | 10 | 0.0 | 0.0 | 0.00 | 0.00 | 0.00 | 90 | 1020.9 | |
| 20260507142037 | 10 | 0.0 | 0.0 | 0.00 | 0.00 | 0.00 | 91 | 1020.9 | |
| 20260507141017 | 10 | 0.0 | 0.0 | 0.00 | 0.00 | 0.00 | 91 | 1020.9 | |
| 20260507140018 | 10 | 0.0 | 0.0 | 0.00 | 0.00 | 0.00 | 93 | 1020.8 | |
| 20260507135017 | 9 | 0.0 | 0.0 | 0.00 | 0.00 | 0.00 | 93 | 1020.8 | |
| 20260507134037 | 9 | 0.0 | 0.0 | 0.00 | 0.00 | 0.00 | 93 | 1020.7 | |
| 20260507133017 | 9 | 0.0 | 0.0 | 0.00 | 0.00 | 0.00 | 93 | 1020.5 | |
| 20260507132017 | 9 | 0.0 | 0.0 | 0.00 | 0.00 | 0.00 | 93 | 1020.5 | |
| 20260507131017 | 9 | 0.0 | 1.6 | 0.00 | 0.00 | 0.00 | 93 | 1020.6 | |
| 20260507130057 | 9 | 0.0 | 0.0 | 0.00 | 0.00 | 0.00 | 94 | 1020.6 | |
| 20260507125037 | 9 | 0.0 | 0.0 | 0.00 | 0.00 | 0.00 | 93 | 1020.7 | |
| 20260507124016 | 9 | 0.0 | 0.0 | 0.00 | 0.00 | 0.00 | 93 | 1020.7 | |
| 20260507123117 | 9 | 0.0 | 0.0 | 0.00 | 0.00 | 0.00 | 93 | 1020.8 | |
| 20260507122017 | 9 | 0.0 | 1.6 | 0.00 | 0.00 | 0.00 | 93 | 1020.9 | |
| 20260507121017 | 9 | 0.0 | 0.0 | 0.00 | 0.00 | 0.00 | 93 | 1020.8 | |
| 20260507120017 | 9 | 0.0 | 1.6 | 0.00 | 0.00 | 0.00 | 92 | 1020.9 | |
| 20260507115017 | 9 | 0.0 | 0.0 | 0.00 | 0.00 | 0.00 | 91 | 1021.0 | |
| 20260507114017 | 10 | 0.0 | 0.0 | 0.00 | 0.00 | 0.00 | 91 | 1021.1 | |
| 20260507113016 | 10 | 0.0 | 0.0 | 0.00 | 0.00 | 0.00 | 90 | 1021.0 | |
| 20260507112038 | 10 | 0.0 | 0.0 | 0.00 | 0.00 | 0.00 | 90 | 1021.1 | |
| 20260507111017 | 10 | 0.0 | 0.0 | 0.00 | 0.00 | 0.00 | 89 | 1021.2 | |
| 20260507110016 | 10 | 0.0 | 0.0 | 0.00 | 0.00 | 0.00 | 89 | 1021.2 | |
| 20260507105016 | 10 | 0.0 | 0.0 | 0.00 | 0.00 | 0.00 | 89 | 1021.2 | |
| 20260507104036 | 11 | 0.0 | 0.0 | 0.00 | 0.00 | 0.00 | 89 | 1021.2 | |
| 20260507103037 | 11 | 0.0 | 0.0 | 0.00 | 0.00 | 0.00 | 89 | 1021.3 | |
| 20260507102016 | 11 | 0.0 | 0.0 | 0.00 | 0.00 | 0.00 | 89 | 1021.3 | |
| 20260507101017 | 11 | 0.0 | 1.6 | 0.00 | 0.00 | 0.00 | 89 | 1021.3 | |
| 20260507100016 | 11 | 0.0 | 1.6 | 0.00 | 0.00 | 0.00 | 89 | 1021.3 | |
| 20260507095017 | 11 | 0.0 | 1.6 | 0.00 | 0.00 | 0.00 | 89 | 1021.3 | |
| 20260507094037 | 11 | 0.0 | 0.0 | 0.00 | 0.00 | 0.00 | 89 | 1021.3 | |
| 20260507093016 | 11 | 0.0 | 1.6 | 0.00 | 0.00 | 0.00 | 90 | 1021.2 | |
| 20260507092016 | 11 | 0.0 | 0.0 | 0.00 | 0.00 | 0.00 | 90 | 1021.3 | |
| 20260507091037 | 11 | 0.0 | 1.6 | 0.00 | 0.00 | 0.00 | 90 | 1021.3 | |
| 20260507090017 | 11 | 0.0 | 1.6 | 0.00 | 0.00 | 0.00 | 90 | 1021.4 | |
| 20260507085016 | 11 | 0.0 | 0.0 | 0.00 | 0.00 | 0.00 | 90 | 1021.3 | |
| 20260507084016 | 11 | 0.0 | 1.6 | 0.00 | 0.00 | 0.00 | 90 | 1021.3 | |
| 20260507083016 | 11 | 0.0 | 1.6 | 0.00 | 0.00 | 0.00 | 90 | 1021.2 | |
| 20260507082016 | 11 | 0.0 | 0.0 | 0.00 | 0.00 | 0.00 | 90 | 1021.1 | |
| 20260507081017 | 11 | 0.0 | 0.0 | 0.00 | 0.00 | 0.00 | 90 | 1021.1 | |
| 20260507080016 | 11 | 0.0 | 0.0 | 0.00 | 0.00 | 0.00 | 90 | 1021.2 | |
| 20260507075016 | 11 | 0.0 | 0.0 | 0.00 | 0.00 | 0.00 | 90 | 1021.2 | |
| 20260507074016 | 11 | 0.0 | 0.0 | 0.00 | 0.00 | 0.00 | 89 | 1021.1 | |
| 20260507073017 | 11 | 0.0 | 0.0 | 0.00 | 0.00 | 0.00 | 89 | 1021.1 | |
| 20260507072016 | 11 | 0.0 | 0.0 | 0.00 | 0.00 | 0.00 | 89 | 1021.1 | |
| 20260507071016 | 11 | 0.0 | 0.0 | 0.00 | 0.00 | 0.00 | 88 | 1021.0 | |
| 20260507070016 | 11 | 0.0 | 0.0 | 0.00 | 0.00 | 0.00 | 88 | 1020.9 | |
| 20260507065016 | 11 | 0.0 | 0.0 | 0.00 | 0.00 | 0.00 | 87 | 1020.9 | |
| 20260507064016 | 11 | 0.0 | 0.0 | 0.00 | 0.00 | 0.00 | 87 | 1020.9 | |
| 20260507063017 | 12 | 0.0 | 0.0 | 0.00 | 0.00 | 0.00 | 88 | 1021.0 | |
| 20260507062016 | 12 | 0.0 | 0.0 | 0.00 | 0.00 | 0.00 | 88 | 1021.0 | |
| 20260507061016 | 12 | 0.0 | 1.6 | 0.00 | 0.00 | 0.00 | 88 | 1021.0 | |
| 20260507060016 | 12 | 0.0 | 1.6 | 0.00 | 0.00 | 0.00 | 87 | 1021.0 | |
| 20260507055016 | 12 | 0.0 | 0.0 | 0.00 | 0.00 | 0.00 | 88 | 1021.1 | |
| 20260507054016 | 12 | 0.0 | 0.0 | 0.00 | 0.00 | 0.00 | 88 | 1021.2 | |
| 20260507053016 | 12 | 0.0 | 1.6 | 0.00 | 0.00 | 0.00 | 88 | 1021.1 | |
| 20260507052016 | 12 | 0.0 | 1.6 | 0.00 | 0.00 | 0.00 | 88 | 1021.2 | |
| 20260507051036 | 12 | 0.0 | 0.0 | 0.00 | 0.00 | 0.00 | 88 | 1021.2 | |
| 20260507050017 | 12 | 0.0 | 0.0 | 0.00 | 0.00 | 0.00 | 88 | 1021.3 | |
| 20260507045016 | 12 | 0.0 | 0.0 | 0.00 | 0.00 | 0.00 | 88 | 1021.2 | |
| 20260507044016 | 12 | 0.0 | 0.0 | 0.00 | 0.00 | 0.00 | 87 | 1021.2 | |
| 20260507043016 | 12 | 0.0 | 0.0 | 0.00 | 0.00 | 0.00 | 87 | 1021.2 | |
| 20260507042017 | 12 | 0.0 | 0.0 | 0.00 | 0.00 | 0.00 | 87 | 1021.2 | |
| 20260507041016 | 12 | 0.0 | 0.0 | 0.00 | 0.00 | 0.00 | 87 | 1021.2 | |
| 20260507040016 | 12 | 0.0 | 0.0 | 0.00 | 0.00 | 0.00 | 86 | 1021.1 | |
| 20260507035017 | 12 | 0.0 | 0.0 | 0.00 | 0.00 | 0.00 | 86 | 1021.0 | |
| 20260507034036 | 12 | 0.0 | 0.0 | 0.00 | 0.00 | 0.00 | 86 | 1020.9 |